Regional Weather Roundup
Issued by NWS Goodland, KS

Home | Current Version | Previous Version | Text Only | Print | Product List | Glossary Off
Versions: 1 2 3 4 5 6 7 8 9 10 11 12 13 14 15 16 17 18 19 20 21 22 23 24 25 26 27 28 29 30 31 32 33 34 35 36 37 38 39 40 41 42 43 44 45 46 47 48 49 50

000
ASUS43 KGLD 180059
RWRGLD

GOODLAND FORECAST AREA HOURLY WEATHER ROUNDUP
NATIONAL WEATHER SERVICE GOODLAND KS
600 PM MST WED JAN 17 2018

...OFFICIAL OBSERVATIONS...

CITY           SKY/WX    TMP DP  RH WIND       PRES   REMARKS
GOODLAND KS    CLOUDY    27   9  46 S6        30.25S
HILL CITY KS   CLOUDY    32  15  49 CALM      30.32S
IMPERIAL NEB   PTCLDY    31  18  58 NW6       30.26R
MCCOOK NEB     MOCLDY    30  19  63 S6        30.28S
AKRON CO       CLEAR     28  15  58 N5        30.26R
BURLINGTON CO  MOCLDY    30   9  41 W5        30.26R
LIMON CO       MOCLDY    21   9  59 N5        30.28R
$$

...UNOFFICIAL OBSERVATIONS...

CITY           SKY/WX    TMP DP  RH WIND       PRES   REMARKS
LENORA KS        N/A     28  32 100 CALM        N/A
NORTON KS      CLEAR     28  12  50 SE5       30.29
SHARON SPRINGS   N/A     35   4  27 CALM        N/A
TRENTON NEB      N/A     29  32 100 CALM        N/A
KIT CARSON CO    N/A     31   1  27 CALM        N/A
YUMA CO        FAIR      30   9  40 N5        30.26R
$$




USA.gov is the U.S. government's official web portal to all federal, state and local government web resources and services.